User: anonymous   Login
Location: Holkham
(52.9500°N, 0.8167°E)
Time: 17:06:57
(UTC+00:00)
Language:

Meteor 1-19 Rocket - Orbit

View from above orbital plane
View from above orbital plane
View from above satellite
View from above satellite

Ground track
Ground track

The orbit data is extracted from the following two-line orbital elements,

1  7493U 74083B   25197.34752762  .00000255  00000-0  13808-3 0  9990
2  7493  81.1606 152.8839 0085565  64.3185 296.6789 14.07960831604005
Epoch (UTC): 16 July 2025 08:20:26
Eccentricity: 0.0085565
inclination: 81.1606°
perigee height: 804 km
apogee height: 928 km
right ascension of ascending node: 152.8839°
argument of perigee: 64.3185°
revolutions per day: 14.07960831
mean anomaly at epoch: 296.6789°
orbit number at epoch: 60400

The dashed part of the orbit path shows where the satellite is in the earth's shadow,  

DLR